Погода в Мегрино

Россия / Вологодская область     59°08′53″N   35°35′02″E
темп.,
°C
ветер,
м/с
пор.,
м/с
влажн.,
%
обл.,
%
осадки,
мм/ч
давл.,
гПа
погр.,
м
6 мая, чт
чт600:00+2вюв3986100 0.0 1005323
03:00+3вюв379282 0.0 1005244
06:00+5вюв3997100 0.3 1002413
09:00+7юв51494100 2.6 999643
12:00+15ююв6127397 0.4 9951064
15:00+14ю7148197 2.6 9931397
18:00+11ююз71389100 1.3 9921406
21:00+6юз61294100 2.2 9961194
7 мая, пт
пт700:00+6ююз61291100 0.3 9991081
03:00+5юз51294100 0.4 10001010
06:00+4юз5118896 0.1 1002951
09:00+6юз598193 0.4 10031085
12:00+8юз596495 0.3 10041592
15:00+9зюз4106698 0.9 10051549
18:00+10юз386856 0.7 10061373
21:00+5ю128735 0.9 100712
8 мая, сб
сб800:00+4ююв2592100 0.0 100789
03:00+4юв2895100 0.0 1006218
06:00+6юв41195100 1.6 10041122
09:00+6юв51295100 3.2 10021118
12:00+7ююв41095100 0.4 1001771
15:00+8юв4794100 0.5 1000631
18:00+7юв2698100 1.4 999399
21:00+7з1399100 6.7 999202
9 мая, вс
вс900:00+4зсз51097100 4.9 999649
03:00+3зсз61297100 7.2 10011042
06:00+3з71497100 0.3 10041123
09:00+4зсз61491100 0.3 10081010
12:00+9зсз7125030 0.0 10121968
15:00+10з694396 0.0 10152422
18:00+11з47435 0.0 10172203
21:00+5юз387294 0.0 1020139
10 мая, пн
пн1000:00+5юз3117591 0.0 1021303
03:00+4ююз31177100 0.0 1022287
06:00+5ююз31077100 0.0 1023317
09:00+7ююз41179100 0.2 1023759
12:00+8юз4118296 0.1 1024651
15:00+12юз496962 0.1 1024692
18:00+17юз496184 0.0 10231334
21:00+11ююз31081100 0.0 1025269